Погода Соболево

Погода Соболево : погода сейчас, прогноз погоды и архив. Всё, что Вы хотите узнать о погоде Соболево!

Поиск расширенной информации на нашем сайте:

Другие новости

Новости СМИ2

Главная страница сайта

Новости сайта

02.10.2013

Напоминаем, что на нашем новом сайте вы можете получить высокодетализированные прогнозы погоды по пунктам России, СНГ и мира (включающие важные для авиации метеовеличины, такие как направление и скорость ветра, видимость, явления погоды, количество и форма облачности, нижняя и верхняя граница облачности), а также ознакомиться с разнообразными материалами по авиационной метеорологии и подборкой полезных ссылок на эту тему.

Сайт Метеоцентр.Азия посвящён разработке технологий оптимизации авиаметеорологического обслуживания, включая проектирование и перспективное создание нескольких автоматизированных авиаметеорологических систем:
- система выпуска высокодетальных прогностических карт явлений погоды для нижнего воздушного пространства по России и ближнему зарубежью;
- система верификации прогнозов TAF (выпускаемых синоптиками официальных АМСГ РФ и ближнего зарубежья) и AUTOTAF (выпускаемых сайтом Метеоцентр.Азия) - выявление ошибок, онлайн-сопоставление с фактической погодой METAR, автоматическое внесение коррективов в прогнозы при резком отклонении фактической погоды от прогноза, подсчёт оправдываемости прогнозов по элементам и в целом;
- система обработки, анализа и отображения авиаметеорологической информации для применения провайдерами метеорологической информации.


Погода Соболево - сегодня

Время (UTC), дата Ветер
(°,м/с) 
Видим.   Явления Облачность Т
(°С)
Тd
(°С)
f(%) Тe
(°С)
Pmin
(гПа)
dP
(гПа)
Po
(мм)
O2
(г/м3)
Тmin Tmax R s Состояние
почвы
03 24.04.17 310 (СЗ) 20000 м    8/8 300 м 
[Sc]
+0.6 -1.8 84 -2  1017.4  -0.5  761  306           
06 24.04.17 300 (СЗ) 20000 м    8/8 300 м 
[St]
-0.3 -2 88 -2  1016.9  -0.5  760  307           
09 24.04.17 300 (СЗ) 10 км    10/10 300 м 
[St]
-1.9 -2.6 95 -3  1017  760  309    +1.3       
12 24.04.17 180 (Ю) 10 км    10/10 300 м 
[St]
-0.9 -1.9 93 1016.8  -0.2  760  308           
15 24.04.17 130 (ЮВ) 10 км    10/10 300 м 
[St]
-1.4 -2.5 92 -1  1016.4  -0.4  760  308           
18 24.04.17 140 (ЮВ) 10 км    10/10 300 м 
[St]
-2.2 -3.1 94 -3  1016.4  760  309           
21 24.04.17 120 (ЮВ) 10 км    10/10 600 м 
[Sc]
-0.3 -3 82 1016.3  0.1  760  307  -2.3      32  равномерный
мокрый или
старый снег
100% 
00 25.04.17 140 (ЮВ) 10 км    6/4 600 м средняя 
[Sc|Ac trans]
+2.2 -3.3 67 +3  1015.8  -0.4  760  304           
03 25.04.17 320 (СЗ) 20000 м    4/3 600 м средняя 
[Sc|Ac trans]
+1.2 -3 74 -1  1015.4  -0.5  759  305           
06 25.04.17 310 (СЗ) 20000 м    3/3 600 м 
[Sc]
+2.3 -1.2 78 1014.6  -0.8  759  303           
09 25.04.17 330 (СЗ) 20000 м    3/3 600 м 
[Sc]
+0.3 -1.8 86 1014.7  0.1  759  306    +3.8       
12 25.04.17 350 (С) 20000 м    4/4 600 м 
[Sc]
-1.4 -2.7 91 -1  1014.6  0.1  759  308           
15 25.04.17 350 (С) 20000 м    4/4 600 м 
[Sc]
-3.1 -3.8 95 -3  1014.4  -0.2  758  310           
18 25.04.17 140 (ЮВ) 10 км    10/10 600 м 
[Sc]
-7.6 -8.5 93 -7  1014.4  758  315           
21 25.04.17 тихо ()   0500 м  туман  ?/?  
-4.3 -5.1 94 -4  1014.4  758  311  -7.8      30  равномерный
мокрый или
старый снег
100% 
00 26.04.17 280 (З) 10 км  {туман}  3/3 300 м 
[St]
-0.8 -3.2 84 -2  1013.4  -1  758  307           
03 26.04.17 300 (СЗ) 10 км    8/8 300 м 
[Sc]
+0.7 -2.1 81 -1  1012.2  -1.1  757  304           
06 26.04.17 310 (СЗ) 10 км    10/10 300 м 
[St]
-0.7 -2.1 90 -3  1011.2  -1  756  306           
09 26.04.17 010 (С) 10 км    10/10 300 м 
[St]
-2.1 -2.7 96 -3  1010.6  -0.6  756  307    +0.9       
12 26.04.17 280 (З) 0500 м  туман  ?/?  
-2.5 -2.9 97 -2  1009.8  -0.8  755  307           
15 26.04.17 110 (В) 0500 м  туман  ?/?  
-3.3 -3.9 96 -3  1008  -1.8  754  308           
18 26.04.17 190 (Ю) 0500 м  туман  ?/?  
-3.7 -4.3 96 -3  1007.3  -0.6  753  308           
21 26.04.17 220 (ЮЗ) 10 км  {снег, туман}  10/10 300 м 
[St]
-3.1 -3.8 95 -3  1006.2  -1.1  752  307  -4    0.2  29  равномерный
мокрый или
старый снег
100% 
00 27.04.17 200 (Ю) 10 км  {снег, туман}  10/10 300 м 
[St]
-0.4 -3.8 78 1005.1  -1  752  304           
03 27.04.17 190 (Ю) 10 км    8/8 300 м 
[Sc]
+2 -3.1 69 +1  1003.6  -1.5  750  301           
Время (UTC), дата Ветер
(°,м/с) 
Видим.   Явления Облачность Т
(°С)
Тd
(°С)
f(%) Тe
(°С)
Pmin
(гПа)
dP
(гПа)
Po
(мм)
O2
(г/м3)
Тmin Tmax R s Состояние
почвы

Для получения пояснительной информации подведите курсор к названию столбца.

ПОГОДА Соболево - архив

Всё, что Вы хотите узнать о погоде Соболево - удобно и подробно!

Выберите нужную дату (начиная с 1 января 2015* года) и нажмите кнопку "Найти".
Будут отображены архивные сводки погоды по пункту Соболево, начиная с указанной даты.


Отображать данные в формате CSV (для использования в таблицах Excel)


Внимание! Наш архив погоды предназначен исключительно для личного некоммерческого использования в познавательных целях. Если Вам необходимы официальные справки о состоянии погоды (для производственных, юридических, коммерческих и т.п. целей), обращайтесь в органы Росгидромета.

*Примечание: данная дата относится к архиву по метеостанциям СССР (Россия, СНГ, Балтия).
Архив по метеостанциям Зарубежной Европы и Азии (кроме Китая) хранится 10 дней, по другим регионам земного шара (Китай, Африка, Америка, Австралия, Океания) - 1 день.

Соболево - район местоположения метеостанции


Название, широта, долгота, высота метеостанции:
Соболево 54.30°ш. 155.93°д. 14 м над ур. моря [Российская Федерация]

Дополнительная информация

В oтличие oт бoльшинства пoгoдных сайтoв мы публикуем пoдрoбную метеoинфoрмацию в детальнoм прoфессиoнальнoм фoрмате.

Характеристики температуры и влажнoсти вoздуха измеряются на высoте 2 м в тени вдали oт зданий и деревьев.
Скoрoсть ветра измеряется на высoте 10 м (на урoвне рoста челoвека скoрoсть ветра ниже в 1.5-2 раза). Если метеoстанция нахoдится в гoрoде или в лесу, тo скoрoсть ветра занижена на 2-4 м/с пo сравнению с oткрытым местoм. Скoрoсть ветра над акватoриями крупных рек и oзёр, а также на вершинах хoлмoв на 2-5 м/с выше, чем в oбычных услoвиях.
Атмoсфернoе давление в разных тoчках местнoсти мoжет значительнo oтличаться oт давления на метеoстанции, в зависимoсти oт услoвий рельефа (при пoдъёме на 10 м давление пoнижается примернo на 1 мм рт.ст.).